LOT6YM EPKK-EPWA

Flight info

Callsign LOT6YM
Flight time 0h 38m
Altitude 17000
Route POBOK M985 KOTEK M866 LOGDA
Aircraft E190/M-SDE3GILORVW/S

Departure

Time 2026-05-06 20:07
Airport Kraków John Paul II International Airport (EPKK)

Arrival

Time 2026-05-06 20:46
Airport Warsaw Chopin Airport (EPWA)
Time Latitude Longitude Altitude Speed Heading
2026-05-06 19:35 50.07279 19.79779 789 ft 0 kts 167°
2026-05-06 19:54 50.07301 19.79772 788 ft 4 kts 168°
2026-05-06 19:55 50.07325 19.79765 788 ft 1 kts 168°
2026-05-06 19:55 50.07348 19.79760 788 ft 4 kts 186°
2026-05-06 19:55 50.07373 19.79772 788 ft 4 kts 209°
2026-05-06 19:55 50.07395 19.79785 788 ft 2 kts 168°
2026-05-06 19:56 50.07417 19.79778 788 ft 4 kts 167°
2026-05-06 19:56 50.07431 19.79773 788 ft 0 kts 167°
2026-05-06 19:58 50.07417 19.79778 788 ft 4 kts 167°
2026-05-06 19:59 50.07382 19.79804 788 ft 7 kts 136°
2026-05-06 19:59 50.07382 19.79889 788 ft 10 kts 78°
2026-05-06 19:59 50.07398 19.80003 788 ft 12 kts 78°
2026-05-06 19:59 50.07415 19.80134 788 ft 13 kts 78°
2026-05-06 20:00 50.07437 19.80285 788 ft 15 kts 77°
2026-05-06 20:00 50.07489 19.80389 788 ft 10 kts 18°
2026-05-06 20:00 50.07558 19.80420 788 ft 11 kts 16°
2026-05-06 20:00 50.07639 19.80408 788 ft 12 kts 347°
2026-05-06 20:01 50.07728 19.80377 788 ft 14 kts 347°
2026-05-06 20:01 50.07799 19.80352 788 ft 10 kts 347°
2026-05-06 20:01 50.07846 19.80336 788 ft 2 kts 348°
2026-05-06 20:01 50.07848 19.80335 788 ft 0 kts 348°
2026-05-06 20:04 50.07877 19.80325 788 ft 9 kts 348°
2026-05-06 20:05 50.07963 19.80296 787 ft 14 kts 347°
2026-05-06 20:05 50.08019 19.80254 787 ft 7 kts 288°
2026-05-06 20:05 50.08017 19.80226 787 ft 0 kts 258°
2026-05-06 20:06 50.08017 19.80225 787 ft 0 kts 258°
2026-05-06 20:06 50.08011 19.80180 789 ft 21 kts 258°
2026-05-06 20:07 50.07931 19.79605 790 ft 88 kts 257°
2026-05-06 20:07 50.07756 19.78352 792 ft 146 kts 258°
2026-05-06 20:07 50.07530 19.76666 1152 ft 168 kts 258°
2026-05-06 20:07 50.07263 19.74828 1614 ft 172 kts 256°
2026-05-06 20:08 50.06996 19.72959 1726 ft 194 kts 255°
2026-05-06 20:08 50.06708 19.70907 2625 ft 194 kts 254°
2026-05-06 20:08 50.06413 19.68880 3535 ft 193 kts 252°
2026-05-06 20:08 50.06236 19.66803 4386 ft 199 kts 266°
2026-05-06 20:09 50.06583 19.64696 5194 ft 211 kts 287°
2026-05-06 20:09 50.07455 19.62750 5966 ft 224 kts 308°
2026-05-06 20:09 50.08602 19.61112 6644 ft 232 kts 315°
2026-05-06 20:09 50.10097 19.60002 7274 ft 248 kts 343°
2026-05-06 20:10 50.11842 19.60037 7941 ft 257 kts 11°
2026-05-06 20:10 50.13466 19.61201 8613 ft 259 kts 34°
2026-05-06 20:10 50.14890 19.62928 9272 ft 261 kts 41°
2026-05-06 20:10 50.16289 19.64756 9895 ft 264 kts 41°
2026-05-06 20:11 50.17727 19.66572 10471 ft 268 kts 40°
2026-05-06 20:11 50.19190 19.68395 11054 ft 271 kts 40°
2026-05-06 20:11 50.20677 19.70245 11628 ft 275 kts 40°
2026-05-06 20:11 50.22179 19.72118 12233 ft 278 kts 40°
2026-05-06 20:12 50.23697 19.74020 12848 ft 281 kts 40°
2026-05-06 20:12 50.25226 19.75945 13482 ft 284 kts 40°
2026-05-06 20:12 50.26768 19.77895 14082 ft 286 kts 40°
2026-05-06 20:12 50.28315 19.79868 14691 ft 288 kts 40°
2026-05-06 20:13 50.29874 19.81864 15298 ft 290 kts 40°
2026-05-06 20:13 50.31433 19.83886 15919 ft 292 kts 40°
2026-05-06 20:13 50.33000 19.85923 16519 ft 294 kts 40°
2026-05-06 20:13 50.34573 19.87991 17086 ft 297 kts 40°
2026-05-06 20:14 50.36124 19.90080 17095 ft 289 kts 42°
2026-05-06 20:14 50.37573 19.92152 17050 ft 276 kts 42°
2026-05-06 20:14 50.38966 19.94147 16998 ft 267 kts 43°
2026-05-06 20:14 50.40316 19.96082 17001 ft 262 kts 42°
2026-05-06 20:15 50.41653 19.97999 17015 ft 261 kts 42°
2026-05-06 20:15 50.42987 19.99921 17019 ft 260 kts 43°
2026-05-06 20:15 50.44322 20.01842 17013 ft 260 kts 43°
2026-05-06 20:15 50.45637 20.03740 17007 ft 260 kts 43°
2026-05-06 20:16 50.46970 20.05665 17014 ft 260 kts 43°
2026-05-06 20:16 50.48300 20.07588 17014 ft 260 kts 43°
2026-05-06 20:16 50.49631 20.09515 17020 ft 260 kts 43°
2026-05-06 20:16 50.50963 20.11443 17020 ft 260 kts 43°
2026-05-06 20:17 50.52292 20.13371 17024 ft 260 kts 43°
2026-05-06 20:17 50.53624 20.15305 17026 ft 261 kts 43°
2026-05-06 20:17 50.54958 20.17244 17031 ft 261 kts 43°
2026-05-06 20:17 50.56292 20.19182 17033 ft 261 kts 43°
2026-05-06 20:18 50.57624 20.21116 17033 ft 261 kts 41°
2026-05-06 20:18 50.59081 20.22811 17024 ft 260 kts 27°
2026-05-06 20:18 50.60751 20.23835 17027 ft 257 kts 11°
2026-05-06 20:18 50.62494 20.24437 17042 ft 256 kts
2026-05-06 20:19 50.64239 20.25004 17049 ft 257 kts
2026-05-06 20:19 50.65951 20.25853 17048 ft 259 kts 18°
2026-05-06 20:19 50.67610 20.26970 17047 ft 260 kts 21°
2026-05-06 20:19 50.69262 20.28127 16994 ft 259 kts 21°
2026-05-06 20:20 50.70909 20.29271 16999 ft 259 kts 21°
2026-05-06 20:20 50.72556 20.30415 17000 ft 259 kts 21°
2026-05-06 20:20 50.74208 20.31559 17000 ft 260 kts 21°
2026-05-06 20:20 50.75863 20.32705 17001 ft 260 kts 21°
2026-05-06 20:21 50.77520 20.33853 17002 ft 260 kts 21°
2026-05-06 20:21 50.79174 20.35001 17003 ft 260 kts 20°
2026-05-06 20:21 50.80829 20.36148 17006 ft 260 kts 21°
2026-05-06 20:21 50.82485 20.37298 17004 ft 260 kts 20°
2026-05-06 20:22 50.84141 20.38448 17003 ft 260 kts 21°
2026-05-06 20:22 50.85796 20.39598 17002 ft 260 kts 21°
2026-05-06 20:22 50.87452 20.40749 17003 ft 260 kts 21°
2026-05-06 20:22 50.89108 20.41900 17005 ft 260 kts 21°
2026-05-06 20:23 50.90763 20.43054 17003 ft 260 kts 21°
2026-05-06 20:23 50.92418 20.44208 17004 ft 260 kts 21°
2026-05-06 20:23 50.94072 20.45360 17005 ft 260 kts 21°
2026-05-06 20:23 50.95725 20.46515 17011 ft 259 kts 20°
2026-05-06 20:24 50.97371 20.47665 17003 ft 258 kts 20°
2026-05-06 20:24 50.99014 20.48813 16998 ft 258 kts 20°
2026-05-06 20:24 51.00659 20.49964 17004 ft 259 kts 20°
2026-05-06 20:24 51.02308 20.51118 16999 ft 259 kts 21°
2026-05-06 20:25 51.03952 20.52270 17004 ft 258 kts 21°
2026-05-06 20:25 51.05597 20.53424 17006 ft 259 kts 21°
2026-05-06 20:25 51.07219 20.54562 17003 ft 258 kts 21°
2026-05-06 20:25 51.08864 20.55717 17003 ft 259 kts 21°
2026-05-06 20:26 51.10511 20.56874 17006 ft 259 kts 21°
2026-05-06 20:26 51.12158 20.58032 17001 ft 259 kts 20°
2026-05-06 20:26 51.13825 20.59081 17006 ft 257 kts 15°
2026-05-06 20:26 51.15520 20.60008 17005 ft 258 kts 15°
2026-05-06 20:27 51.17213 20.60943 17006 ft 257 kts 15°
2026-05-06 20:27 51.18906 20.61892 17000 ft 258 kts 16°
2026-05-06 20:27 51.20601 20.62853 17001 ft 259 kts 16°
2026-05-06 20:27 51.22292 20.63818 17001 ft 258 kts 16°
2026-05-06 20:28 51.23986 20.64784 17002 ft 258 kts 16°
2026-05-06 20:28 51.25678 20.65753 17000 ft 258 kts 16°
2026-05-06 20:28 51.27368 20.66725 16996 ft 258 kts 16°
2026-05-06 20:28 51.29060 20.67696 17000 ft 258 kts 16°
2026-05-06 20:29 51.30751 20.68669 17004 ft 258 kts 16°
2026-05-06 20:29 51.32439 20.69639 17006 ft 258 kts 16°
2026-05-06 20:29 51.34117 20.70607 17021 ft 259 kts 16°
2026-05-06 20:29 51.35823 20.71589 17022 ft 259 kts 16°
2026-05-06 20:30 51.37513 20.72565 17024 ft 258 kts 16°
2026-05-06 20:30 51.40899 20.74519 17038 ft 260 kts 17°
2026-05-06 20:30 51.42599 20.75504 17041 ft 260 kts 17°
2026-05-06 20:31 51.44297 20.76487 17042 ft 257 kts 17°
2026-05-06 20:31 51.45924 20.77435 16995 ft 240 kts 17°
2026-05-06 20:31 51.47442 20.78318 16892 ft 225 kts 16°
2026-05-06 20:31 51.48874 20.79148 16698 ft 214 kts 16°
2026-05-06 20:32 51.50251 20.79945 16402 ft 207 kts 16°
2026-05-06 20:32 51.51605 20.80726 15975 ft 210 kts 16°
2026-05-06 20:32 51.53051 20.81552 15157 ft 235 kts 17°
2026-05-06 20:32 51.54610 20.82460 14753 ft 238 kts 18°
2026-05-06 20:33 51.56173 20.83373 14417 ft 239 kts 18°
2026-05-06 20:33 51.57745 20.84289 14069 ft 241 kts 18°
2026-05-06 20:33 51.59332 20.85215 13724 ft 244 kts 18°
2026-05-06 20:33 51.60936 20.86151 13360 ft 247 kts 19°
2026-05-06 20:34 51.62558 20.87099 12969 ft 250 kts 18°
2026-05-06 20:34 51.64201 20.88059 12575 ft 253 kts 19°
2026-05-06 20:34 51.65869 20.89035 12176 ft 257 kts 19°
2026-05-06 20:34 51.67563 20.90026 11770 ft 261 kts 19°
2026-05-06 20:35 51.69283 20.91034 11362 ft 265 kts 19°
2026-05-06 20:35 51.71034 20.92061 10956 ft 269 kts 19°
2026-05-06 20:35 51.72777 20.93084 10603 ft 271 kts 19°
2026-05-06 20:35 51.74552 20.94127 10261 ft 272 kts 19°
2026-05-06 20:36 51.76328 20.95173 9945 ft 272 kts 19°
2026-05-06 20:36 51.78102 20.96217 9645 ft 271 kts 19°
2026-05-06 20:36 51.79867 20.97257 9355 ft 269 kts 19°
2026-05-06 20:36 51.81617 20.98289 9044 ft 267 kts 19°
2026-05-06 20:37 51.83355 20.99315 8742 ft 266 kts 19°
2026-05-06 20:37 51.85088 21.00339 8456 ft 264 kts 19°
2026-05-06 20:37 51.86808 21.01356 8165 ft 262 kts 19°
2026-05-06 20:37 51.88511 21.02386 7887 ft 260 kts 23°
2026-05-06 20:38 51.89936 21.04146 7548 ft 259 kts 56°
2026-05-06 20:38 51.90596 21.06771 7253 ft 250 kts 89°
2026-05-06 20:38 51.90321 21.09440 6940 ft 237 kts 122°
2026-05-06 20:38 51.89272 21.11370 6645 ft 226 kts 147°
2026-05-06 20:39 51.88028 21.12921 6354 ft 226 kts 147°
2026-05-06 20:39 51.86937 21.14767 6023 ft 234 kts 122°
2026-05-06 20:39 51.86567 21.17362 5585 ft 248 kts 91°
2026-05-06 20:39 51.87126 21.20054 5203 ft 255 kts 54°
2026-05-06 20:40 51.88464 21.21765 5219 ft 244 kts 18°
2026-05-06 20:40 51.90092 21.21727 5169 ft 235 kts 329°
2026-05-06 20:40 51.91193 21.19933 5220 ft 224 kts 296°
2026-05-06 20:40 51.92173 21.17940 5257 ft 234 kts 320°
2026-05-06 20:41 51.93632 21.16705 5197 ft 243 kts 333°
2026-05-06 20:41 51.95165 21.15483 4820 ft 246 kts 326°
2026-05-06 20:41 51.96640 21.14058 4479 ft 247 kts 327°
2026-05-06 20:41 51.98164 21.12763 4141 ft 247 kts 330°
2026-05-06 20:42 51.99688 21.11484 3812 ft 246 kts 328°
2026-05-06 20:42 52.01160 21.10166 3533 ft 237 kts 328°
2026-05-06 20:42 52.02586 21.08927 3200 ft 228 kts 328°
2026-05-06 20:42 52.03964 21.07741 2905 ft 219 kts 328°
2026-05-06 20:43 52.05262 21.06603 2619 ft 211 kts 328°
2026-05-06 20:43 52.06514 21.05510 2369 ft 194 kts 328°
2026-05-06 20:43 52.07650 21.04522 2105 ft 177 kts 328°
2026-05-06 20:43 52.08687 21.03616 1878 ft 162 kts 328°
2026-05-06 20:44 52.09638 21.02784 1674 ft 149 kts 327°
2026-05-06 20:44 52.10516 21.02017 1470 ft 139 kts 327°
2026-05-06 20:44 52.11355 21.01285 1303 ft 136 kts 327°
2026-05-06 20:44 52.12175 21.00555 1113 ft 136 kts 329°
2026-05-06 20:45 52.13013 20.99808 936 ft 138 kts 332°
2026-05-06 20:45 52.13857 20.99069 772 ft 137 kts 332°
2026-05-06 20:45 52.14711 20.98326 552 ft 139 kts 333°
2026-05-06 20:45 52.15568 20.97591 381 ft 138 kts 334°
2026-05-06 20:46 52.16369 20.96898 338 ft 117 kts 330°
2026-05-06 20:46 52.16916 20.96416 335 ft 64 kts 331°
2026-05-06 20:46 52.17266 20.96236 332 ft 46 kts
2026-05-06 20:46 52.17393 20.96280 334 ft 0 kts 49°
2026-05-06 20:47 52.17402 20.96305 336 ft 5 kts 62°
2026-05-06 20:47 52.17424 20.96370 338 ft 10 kts 61°
2026-05-06 20:47 52.17465 20.96491 337 ft 12 kts 61°
2026-05-06 20:48 52.17436 20.96594 335 ft 12 kts 149°
2026-05-06 20:48 52.17356 20.96665 338 ft 14 kts 151°
2026-05-06 20:48 52.17267 20.96744 336 ft 15 kts 152°
2026-05-06 20:48 52.17171 20.96828 335 ft 17 kts 152°
2026-05-06 20:49 52.17073 20.96914 336 ft 11 kts 151°
2026-05-06 20:49 52.17019 20.96962 336 ft 6 kts 152°
2026-05-06 20:49 52.16982 20.96994 336 ft 6 kts 151°
2026-05-06 20:49 52.16960 20.97013 338 ft 0 kts 152°
2026-05-06 20:50 52.16941 20.97031 336 ft 6 kts 152°
2026-05-06 20:50 52.16894 20.97071 336 ft 9 kts 152°
2026-05-06 20:50 52.16836 20.97123 337 ft 7 kts 144°
2026-05-06 20:50 52.16833 20.97175 334 ft 5 kts 79°
2026-05-06 20:51 52.16839 20.97214 335 ft 3 kts 77°
2026-05-06 20:51 52.16846 20.97262 338 ft 4 kts 76°
2026-05-06 20:51 52.16849 20.97283 336 ft 0 kts 76°
2026-05-06 20:51 52.16849 20.97284 336 ft 0 kts 76°